Location: Unspecified
(37.6100°N, 2.7800°W)
Time: 17:40:45
(UTC+00:00)

Hubble Space Telescope - Visible Passes

Search period start: 24 May 2018 00:00
Search period end: 03 June 2018 00:00
Orbit: 537 x 541 km, 28.5° (Epoch: 23 May)

Date Brightness Start Highest point End Pass type
(mag) Time Alt. Az. Time Alt. Az. Time Alt. Az.
29 May 3.1 03:07:53 11° SSE 03:07:53 11° SSE 03:08:45 10° SE visible
30 May 3.0 02:57:58 12° SSE 02:57:58 12° SSE 02:59:09 10° SE visible
31 May 3.0 02:48:01 13° SE 02:48:01 13° SE 02:49:10 10° SE visible
01 Jun 3.0 02:38:07 13° SE 02:38:07 13° SE 02:39:03 10° SE visible
01 Jun 2.2 04:13:40 10° SW 04:16:57 23° S 04:20:15 10° SE visible
02 Jun 3.2 02:28:15 12° SE 02:28:15 12° SE 02:28:50 10° SE visible
02 Jun 2.2 04:03:36 12° SW 04:06:32 23° S 04:09:49 10° SE visible
